Location: *
(39.6167°S, 171.5333°W)
Time: 06:16:13
(UTC+00:00)

Cosmos 1809 Rocket - Pass Details

Date: 13 May 2021
Orbit: 942 x 962 km, 82.5° (Epoch: 16 June)

Event Time Altitude Azimuth Distance (km) Brightness Sun altitude
Rises 17:29:03 0° 189° (S) 3,661 7.3 -10.5°
Reaches altitude 10° 17:31:34 10° 190° (S) 2,706 6.6 -10.0°
Maximum altitude 17:37:46 80° 276° (W) 973 4.4 -8.9°
Drops below altitude 10° 17:43:51 10° 1° (N) 2,661 7.1 -7.8°
Sets 17:46:19 0° 2° (N) 3,597 7.8 -7.3°
